New Bedford, MA

6:58 AM EDT on May 26, 2017 (GMT -0400)
New Bedford Regional

Weather History for KEWB - November, 2013

Change the Weather History Date:

Tuesday, November 5, 2013

  Actual Average Record
Temperature  
Mean Temperature 37 °F -  
Max Temperature 48 °F 57 °F 76 °F (1990)
Min Temperature 26 °F 42 °F 24 °F (2006)
Degree Days  
Heating Degree Days 28    
Moisture  
Dew Point 28 °F    
Average Humidity 73    
Maximum Humidity 92    
Minimum Humidity 50    
Precipitation  
Precipitation 0.00 in - - ()
Sea Level Pressure  
Sea Level Pressure 30.63 in    
Wind  
Wind Speed 2 mph (SE)    
Max Wind Speed 10 mph    
Max Gust Speed -    
Visibility 10 miles    
Events      
Averages and records for this station are not official NWS values.
T = Trace of Precipitation, MM = Missing Value Source: NWS Daily Summary

Daily Weather History Graph

Daily Weather History Graph

Search for Another Location

Airport or City:

Trip Planner

Search our weather history database for the weather conditions in past years. The results will help you decide how hot, cold, wet, or windy it might be!

Date:

Astronomy

Nov. 05, 2013 Rise Set
Actual Time 6:20 AM EST 4:33 PM EST
Civil Twilight 5:51 AM EST 5:02 PM EST
Nautical Twilight 5:18 AM EST 5:35 PM EST
Astronomical Twilight 4:46 AM EST 6:07 PM EST
Moon 8:33 AM EST (11/5) 6:30 PM EST (11/5)
Length of Visible Light 11h 10m
Length of Day
10h 12m
Waxing Crescent, 6% of the Moon is Illuminated
Nov 5
Waxing Crescent
Nov 10
First Quarter
Nov 17
Full
Nov 25
Last Quarter
Dec 2
New

Hourly Weather History & Observations

Time (EST) Temp. Windchill Dew Point Humidity Pressure Visibility Wind Dir Wind Speed Gust Speed Precip Events Conditions
12:53 AM 27.0 °F - 24.1 °F 89% 30.69 in 10.0 mi Calm Calm - N/A   Mostly Cloudy
1:53 AM 26.1 °F - 23.0 °F 88% 30.69 in 10.0 mi Calm Calm - N/A   Overcast
2:53 AM 28.0 °F - 25.0 °F 88% 30.69 in 10.0 mi Calm Calm - N/A   Overcast
3:53 AM 27.0 °F - 23.0 °F 85% 30.69 in 10.0 mi Calm Calm - N/A   Clear
4:53 AM 28.9 °F - 23.0 °F 78% 30.68 in 10.0 mi Calm Calm - N/A   Clear
5:53 AM 27.0 °F - 23.0 °F 85% 30.69 in 10.0 mi Calm Calm - N/A   Clear
6:53 AM 28.9 °F - 21.9 °F 75% 30.69 in 10.0 mi Calm Calm - N/A   Clear
7:53 AM 34.0 °F 31.0 °F 25.0 °F 70% 30.70 in 10.0 mi North 3.5 mph - N/A   Clear
8:53 AM 41.0 °F 39.0 °F 26.1 °F 55% 30.70 in 10.0 mi North 3.5 mph - N/A   Clear
9:53 AM 46.0 °F 44.8 °F 28.0 °F 50% 30.70 in 10.0 mi Variable 3.5 mph - N/A   Clear
10:53 AM 46.9 °F - 30.0 °F 52% 30.67 in 10.0 mi Calm Calm - N/A   Clear
11:53 AM 48.0 °F - 30.0 °F 50% 30.65 in 10.0 mi SE 8.1 mph - N/A   Clear
12:53 PM 48.9 °F - 30.9 °F 50% 30.64 in 10.0 mi South 9.2 mph - N/A   Clear
1:53 PM 48.0 °F - 30.9 °F 52% 30.61 in 10.0 mi ESE 10.4 mph - N/A   Clear
2:53 PM 48.0 °F - 30.0 °F 50% 30.60 in 10.0 mi South 8.1 mph - N/A   Clear
3:53 PM 46.9 °F - 33.1 °F 59% 30.60 in 10.0 mi South 5.8 mph - N/A   Clear
4:53 PM 42.1 °F - 30.9 °F 65% 30.58 in 10.0 mi Calm Calm - N/A   Clear
5:53 PM 36.0 °F - 30.9 °F 82% 30.58 in 10.0 mi Calm Calm - N/A   Clear
6:53 PM 34.0 °F - 30.0 °F 85% 30.59 in 10.0 mi Calm Calm - N/A   Clear
7:53 PM 32.0 °F - 28.9 °F 88% 30.57 in 10.0 mi Calm Calm - N/A   Clear
8:53 PM 32.0 °F - 30.0 °F 92% 30.58 in 10.0 mi Calm Calm - N/A   Clear
9:53 PM 33.1 °F - 30.0 °F 89% 30.56 in 10.0 mi Calm Calm - N/A   Clear
10:53 PM 34.0 °F - 30.9 °F 89% 30.54 in 10.0 mi Calm Calm - N/A   Clear
11:53 PM 33.1 °F - 30.0 °F 89% 30.53 in 10.0 mi Calm Calm - N/A   Clear